DELTA 1 DEB, 7182

Orbit data source: Space-Track

DELTA 1 DEB, 7182 is space debris in SSO originally from a launch on Tue, 06 Nov 1973 UTC launched from the Air Force Western Test Range (AFWTR). Debris objects in space refer to the collection of defunct objects orbiting the Earth. Examples of debris include non-operational satellites, rocket bodies, and fragments generated from explosions, collisions, or faulty payload assembly.

Loading next visibility...
Identifier
7182, 1973-086ET
Orbit
SSO
Country
Flag of USUS
Related business
Manufacturer
Unknown
Mission
Spacecraft
Bus & Motor
Unknown
Mass
Unknown
Launch date (UTC)
1973-11-06 (52 years ago)
Launch vehicle
Unknown
Launch site
Air Force Western Test Range (AFWTR)
Object type
Payload
Rocket body
Debris
Shape & HBR
Unknown shape, 0.1 m
Radar Cross Section
Small (<0.1 m²)

Expand to show TLE details & history
Last TLE update: 19 hours ago

TLE from 19 hours ago
0 DELTA 1 DEB
1 07182U 73086ET  25297.62373913  .00000519  00000-0  20782-2 0  9997
2 07182 102.5090  73.6633 0334273 332.9146  36.9646 12.77158751657854
Epoch: 2025-10-24T14:58Z
TLE epoch observation values (Epoch: 2025-10-24T14:58:11.060Z)
Latitude
11.92814°
Longitude
173.17874°
Altitude
1,151.481 km
Speed
7.373 km/s
True Right ascension
04h 43m 57s
True Declination
11° 51' 45"
Sunlit
Object was in full shadow at epoch
Visualization orbit readout
Latitude
Unknown
Longitude
Unknown
Altitude
Unknown
Speed
Unknown
Apparent Right ascension
Unknown
Apparent Declination
Unknown
Sunlit
N/A
Visualization observer readout
Local Sidereal Time
04:49:13
Azimuth
Unknown
Elevation
Unknown
Doppler factor
Unknown
Orbital elements
Apogee altitude
1,608.815 km
Perigee altitude
1,092.122 km
Semi-major axis
7,728.606 km
Eccentricity
0.03343
Inclination
102.509°
RAAN
73.6633°
Arg. of periapsis
332.9146°
True anomaly
39.3467°
Mean anomaly
36.9646°
Eccentric anomaly
38.14763°
Mean motion
3.19442 °/min
Orbital period
112.7 mins
BSTAR
0.0020782
Loading maneuver chart data...
Computing Atmospheric mass density...
Loading historical data...
Loading historical data...
Loading historical data...
Loading historical data...
Loading historical data...
Loading historical data...
Loading historical data...

Documentation

Showing up to 5 results
|